GW0639 Weather Reports


time (UTC)temp
C
wind
direction
speed
KPH
gust
KPH
rain 1hr
cm
rain 24hr
cm
rain mn
cm
humidity
%
barometer
mb
20260502151545 12 53 0.0 0.0 0.00 0.08 0.08 73 1014.9
20260502123027 9 155 0.0 3.2 0.00 0.08 0.08 92 1015.5
20260502121527 8 151 0.0 4.8 0.00 0.08 0.08 91 1015.7
20260502113026 8 145 0.0 1.6 0.05 0.10 0.08 92 1015.6
20260502111527 8 355 0.0 3.2 0.05 0.10 0.05 91 1015.6
20260502104528 8 348 0.0 1.6 0.03 0.05 0.03 90 1015.5
20260502103030 8 67 0.0 0.0 0.03 0.05 0.03 91 1014.9
20260502101526 8 67 0.0 0.0 0.03 0.05 0.03 90 1015.2
20260502091527 8 67 0.0 0.0 0.00 0.03 0.00 87 1014.9
20260502070044 10 183 0.0 6.4 0.00 0.03 0.00 74 1014.8
20260502064527 10 203 0.0 4.8 0.00 0.03 0.00 73 1014.7
20260502063028 10 201 0.0 6.4 0.00 0.03 0.00 73 1014.8
20260502061528 10 205 0.0 8.0 0.00 0.03 0.00 72 1015.0
20260502060026 10 195 0.0 3.2 0.00 0.03 0.00 71 1015.0
20260502054527 11 171 0.0 3.2 0.00 0.03 0.00 70 1014.8
20260502053026 11 162 0.0 3.2 0.00 0.03 0.00 70 1014.9
20260502051544 11 175 0.0 0.0 0.00 0.03 0.00 69 1015.0
20260502050027 11 162 0.0 1.6 0.00 0.03 0.00 69 1015.1
20260502043026 11 169 0.0 6.4 0.00 0.03 0.00 68 1015.0
20260502040042 11 156 0.0 1.6 0.00 0.03 0.00 68 1015.0
20260502034537 11 160 0.0 3.2 0.00 0.03 0.03 67 1015.0
20260502031553 11 177 0.0 1.6 0.00 0.03 0.03 68 1015.1
20260502030037 11 191 0.0 0.0 0.00 0.03 0.03 66 1015.1
20260502024539 11 208 0.0 3.2 0.00 0.03 0.03 65 1015.1
20260502023037 11 187 0.0 6.4 0.00 0.03 0.03 63 1015.1
20260502021537 12 203 1.6 6.4 0.00 0.03 0.03 62 1015.1
20260502020037 12 193 1.6 9.7 0.00 0.03 0.03 60 1015.1
20260502014537 12 194 1.6 8.0 0.00 0.03 0.03 59 1015.0
20260502011538 13 187 3.2 9.7 0.00 0.03 0.03 51 1014.7
20260502010036 13 198 1.6 8.0 0.00 0.03 0.03 46 1014.4
20260502004554 13 208 1.6 9.7 0.00 0.03 0.03 44 1014.2
20260502003038 13 186 0.0 6.4 0.00 0.03 0.03 45 1014.0
20260502001537 12 187 0.0 4.8 0.00 0.03 0.03 50 1013.8
20260502000038 13 336 0.0 6.4 0.00 0.03 0.03 48 1013.5
20260501233038 15 337 0.0 0.0 0.00 0.03 0.03 41 1013.2
20260501231538 15 337 0.0 0.0 0.00 0.03 0.03 37 1013.1
20260501230036 16 295 0.0 6.4 0.00 0.03 0.03 36 1013.0
20260501224538 16 281 0.0 8.0 0.00 0.03 0.03 36 1012.8
20260501223037 16 340 0.0 9.7 0.00 0.03 0.03 34 1012.8
20260501221538 17 326 1.6 12.9 0.00 0.03 0.03 33 1012.8
20260501220039 17 322 1.6 9.7 0.00 0.03 0.03 35 1012.8
20260501214537 17 333 1.6 11.3 0.00 0.03 0.03 34 1012.8
20260501211537 18 355 3.2 11.3 0.00 0.03 0.03 32 1012.7
20260501210036 18 357 1.6 8.0 0.00 0.03 0.03 34 1012.6
20260501204538 18 334 3.2 9.7 0.00 0.03 0.03 34 1012.6
20260501203037 17 321 3.2 12.9 0.00 0.03 0.03 33 1012.7
20260501201537 17 307 4.8 19.3 0.00 0.03 0.03 34 1012.7
20260501200037 18 310 3.2 11.3 0.00 0.03 0.03 33 1012.8
20260501194536 18 324 3.2 9.7 0.00 0.03 0.03 34 1012.7
20260501193039 17 330 3.2 12.9 0.00 0.03 0.03 34 1012.9
20260501191537 18 278 4.8 16.1 0.00 0.03 0.03 33 1013.2
20260501190040 17 353 3.2 16.1 0.00 0.03 0.03 35 1013.4
20260501184537 17 310 4.8 12.9 0.00 0.03 0.03 35 1013.4
20260501181538 16 315 4.8 20.9 0.00 0.03 0.03 36 1013.7
20260501180037 17 315 1.6 14.5 0.00 0.03 0.03 36 1013.7
20260501174537 17 310 4.8 14.5 0.00 0.03 0.03 36 1013.7
20260501173037 16 308 4.8 16.1 0.00 0.03 0.03 36 1013.7
20260501170037 15 321 3.2 14.5 0.00 0.03 0.03 39 1013.9
20260501164536 15 302 1.6 8.0 0.00 0.03 0.03 42 1014.1
20260501163037 15 1 3.2 12.9 0.00 0.03 0.03 42 1014.2
20260501161536 14 323 1.6 14.5 0.00 0.03 0.03 44 1014.3
20260501160036 14 326 1.6 12.9 0.00 0.03 0.03 44 1014.5